Location: Bambrugge
(50.9212°N, 3.9299°E)
Time: 12:43:32
(UTC+00:00)

H-2A R/B - Pass Details

Date: 23 May 2024
Orbit: 567 x 637 km, 98.4° (Epoch: 16 June)

Event Time Altitude Azimuth Distance (km) Brightness Sun altitude
Rises 00:30:42 0° 9° (N) 2,954 7.3 -17.6°
Reaches altitude 10° 00:33:01 10° 2° (N) 2,040 6.0 -17.5°
Maximum altitude 00:37:09 40° 294° (WNW) 950 3.0 -17.4°
Enters shadow 00:39:22 23° 240° (WSW) 1,350 3.4 -17.3°
